Location: Del Amo
(33.8464°N, 118.2104°W)
Time: 02:43:10
(UTC+00:00)

SR - Pass Details

Date: 25 September 2024
Orbit: 578 x 855 km, 66.7° (Epoch: 02 October)

Event Time Altitude Azimuth Distance (km) Brightness Sun altitude
Rises 05:08:58 0° 312° (NW) 3,070 ? -41.0°
Reaches altitude 10° 05:11:57 10° 293° (WNW) 2,205 ? -41.6°
Enters shadow 05:12:39 12° 286° (WNW) 2,053 ? -41.7°
Maximum altitude 05:15:10 17° 253° (WSW) 1,812 - -42.1°
Drops below altitude 10° 05:18:33 10° 213° (SSW) 2,314 - -42.7°
Sets 05:21:48 0° 194° (SSW) 3,290 - -43.2°
